When you browse on this site, cookies collect data to enhance your experience and personalize the content and advertising you see.
Visit our Privacy Policy to learn more. By continuing to use the site, you agree to this use of cookies and data.

Hourly Weather Andora

Today, 26 September, Saturday

Time Temperature Precipitation Wind Pressure Humidity
00:00 -1°C° 0 mm 2 mps 621 mmHg 96%
01:00 -1°C° 0.8 mm 2 mps 621 mmHg 96%
02:00 -1°C° 0.8 mm 3 mps 621 mmHg 95%
03:00 -1°C° 0.8 mm 3 mps 620 mmHg 95%
04:00 -1°C° 0.5 mm 3 mps 620 mmHg 95%
05:00 -1°C° 0.5 mm 3 mps 620 mmHg 95%
06:00 0°C° 0 mm 3 mps 620 mmHg 95%
07:00 0°C° 0.1 mm 3 mps 621 mmHg 91%
08:00 +1°C° 0.1 mm 3 mps 621 mmHg 87%
09:00 +2°C° 0.1 mm 3 mps 621 mmHg 82%
10:00 +3°C° 0.2 mm 3 mps 621 mmHg 81%
11:00 +5°C° 0.2 mm 2 mps 621 mmHg 80%
12:00 +6°C° 0.2 mm 2 mps 621 mmHg 79%
13:00 +6°C° 0 mm 2 mps 621 mmHg 81%
14:00 +5°C° 0 mm 2 mps 620 mmHg 82%
15:00 +6°C° 0 mm 1 mps 619 mmHg 83%
16:00 +5°C° 0.3 mm 2 mps 618 mmHg 86%
17:00 +4°C° 0.3 mm 2 mps 618 mmHg 89%
18:00 +4°C° 0.3 mm 2 mps 617 mmHg 92%
19:00 +4°C° 2.4 mm 2 mps 617 mmHg 93%
20:00 +3°C° 2.4 mm 2 mps 617 mmHg 95%
21:00 +3°C° 2.4 mm 2 mps 616 mmHg 96%
22:00 +1°C° 1.1 mm 3 mps 616 mmHg 96%
23:00 +1°C° 1.1 mm 3 mps 616 mmHg 95%

Tomorrow, 27 September, Sunday

Time Temperature Precipitation Wind Pressure Humidity
00:00 -1°C° 1.1 mm 4 mps 616 mmHg 94%
01:00 -2°C° 0.4 mm 4 mps 616 mmHg 94%
02:00 -3°C° 0.4 mm 4 mps 616 mmHg 93%
03:00 -4°C° 0.4 mm 4 mps 616 mmHg 92%
04:00 -4°C° 0 mm 4 mps 616 mmHg 91%
05:00 -5°C° 0 mm 4 mps 616 mmHg 89%
06:00 -7°C° 0 mm 4 mps 616 mmHg 88%
07:00 -4°C° 0 mm 3 mps 617 mmHg 83%
08:00 -1°C° 0 mm 3 mps 618 mmHg 77%
09:00 +1°C° 0 mm 3 mps 619 mmHg 71%
10:00 +2°C° 0 mm 3 mps 619 mmHg 69%
11:00 +3°C° 0 mm 3 mps 619 mmHg 66%
12:00 +4°C° 0 mm 3 mps 620 mmHg 63%
13:00 +4°C° 0 mm 3 mps 619 mmHg 65%
14:00 +4°C° 0 mm 3 mps 619 mmHg 66%
15:00 +4°C° 0 mm 3 mps 619 mmHg 68%
16:00 +3°C° 0.1 mm 3 mps 618 mmHg 75%
17:00 +2°C° 0.1 mm 2 mps 618 mmHg 81%
18:00 +1°C° 0.1 mm 2 mps 618 mmHg 88%
19:00 +1°C° 0.2 mm 2 mps 618 mmHg 89%
20:00 +1°C° 0.2 mm 2 mps 619 mmHg 90%
21:00 +1°C° 0.2 mm 2 mps 619 mmHg 91%
22:00 +1°C° 0.1 mm 2 mps 619 mmHg 93%
23:00 +1°C° 0.1 mm 2 mps 619 mmHg 94%

Day after tomorrow, 28 September, Monday

Time Temperature Precipitation Wind Pressure Humidity
00:00 +1°C° 0.1 mm 2 mps 619 mmHg 95%
01:00 +2°C° 0.1 mm 2 mps 619 mmHg 95%
02:00 +2°C° 0.1 mm 2 mps 619 mmHg 95%
03:00 +2°C° 0.1 mm 2 mps 619 mmHg 96%
04:00 +3°C° 0.2 mm 2 mps 620 mmHg 95%
05:00 +3°C° 0.2 mm 2 mps 620 mmHg 94%
06:00 +3°C° 0.2 mm 2 mps 620 mmHg 94%
07:00 +4°C° 0.2 mm 2 mps 621 mmHg 91%
08:00 +5°C° 0.2 mm 2 mps 622 mmHg 89%
09:00 +6°C° 0.2 mm 2 mps 622 mmHg 86%
10:00 +7°C° 0 mm 2 mps 623 mmHg 84%
11:00 +8°C° 0 mm 2 mps 623 mmHg 82%
12:00 +9°C° 0 mm 2 mps 624 mmHg 79%
13:00 +9°C° 0 mm 2 mps 624 mmHg 80%
14:00 +9°C° 0 mm 2 mps 624 mmHg 80%
15:00 +9°C° 0 mm 2 mps 624 mmHg 81%
16:00 +7°C° 0 mm 2 mps 623 mmHg 85%
17:00 +6°C° 0 mm 2 mps 623 mmHg 89%
18:00 +5°C° 0 mm 2 mps 623 mmHg 93%
19:00 +4°C° 0 mm 2 mps 623 mmHg 94%
20:00 +4°C° 0 mm 2 mps 623 mmHg 94%
21:00 +4°C° 0 mm 1 mps 624 mmHg 94%
22:00 +4°C° 0 mm 1 mps 624 mmHg 92%
23:00 +4°C° 0 mm 1 mps 624 mmHg 90%

29 September, Tuesday

Time Temperature Precipitation Wind Pressure Humidity
00:00 +4°C° 0 mm 1 mps 624 mmHg 89%
01:00 +4°C° 0 mm 1 mps 623 mmHg 87%
02:00 +5°C° 0 mm 1 mps 623 mmHg 85%
03:00 +5°C° 0 mm 1 mps 623 mmHg 84%
04:00 +5°C° 0 mm 1 mps 623 mmHg 83%
05:00 +5°C° 0 mm 1 mps 623 mmHg 83%
06:00 +5°C° 0 mm 1 mps 624 mmHg 83%
07:00 +7°C° 0 mm 1 mps 624 mmHg 80%
08:00 +9°C° 0 mm 1 mps 625 mmHg 77%
09:00 +11°C° 0 mm 1 mps 626 mmHg 74%
10:00 +12°C° 0 mm 1 mps 627 mmHg 70%
11:00 +14°C° 0 mm 1 mps 627 mmHg 67%
12:00 +15°C° 0 mm 1 mps 627 mmHg 64%
13:00 +15°C° 0 mm 1 mps 627 mmHg 64%
14:00 +15°C° 0 mm 1 mps 627 mmHg 64%
15:00 +15°C° 0 mm 1 mps 626 mmHg 65%
16:00 +12°C° 0 mm 1 mps 625 mmHg 72%
17:00 +10°C° 0 mm 1 mps 624 mmHg 80%
18:00 +7°C° 0 mm 0 mps 623 mmHg 87%
19:00 +8°C° 0 mm 1 mps 623 mmHg 87%
20:00 +7°C° 0 mm 1 mps 624 mmHg 87%
21:00 +7°C° 0 mm 1 mps 624 mmHg 87%
22:00 +7°C° 0 mm 1 mps 623 mmHg 87%
23:00 +7°C° 0 mm 1 mps 623 mmHg 87%

30 September, Wednesday

Time Temperature Precipitation Wind Pressure Humidity
00:00 +6°C° 0 mm 1 mps 623 mmHg 87%
01:00 +6°C° 0 mm 1 mps 623 mmHg 86%
02:00 +6°C° 0 mm 1 mps 622 mmHg 85%
03:00 +6°C° 0 mm 1 mps 622 mmHg 84%
04:00 +6°C° 0 mm 1 mps 622 mmHg 83%
05:00 +6°C° 0 mm 1 mps 622 mmHg 83%
06:00 +6°C° 0 mm 1 mps 622 mmHg 82%
07:00 +9°C° 0 mm 1 mps 623 mmHg 76%
08:00 +12°C° 0 mm 1 mps 625 mmHg 70%
09:00 +13°C° 0 mm 0 mps 626 mmHg 64%
10:00 +15°C° 0 mm 1 mps 626 mmHg 60%
11:00 +16°C° 0 mm 1 mps 626 mmHg 57%
12:00 +18°C° 0 mm 1 mps 626 mmHg 53%
13:00 +18°C° 0 mm 1 mps 626 mmHg 54%
14:00 +16°C° 0 mm 1 mps 625 mmHg 55%
15:00 +16°C° 0 mm 1 mps 625 mmHg 56%
16:00 +14°C° 0 mm 1 mps 624 mmHg 64%
17:00 +11°C° 0 mm 1 mps 623 mmHg 72%
18:00 +8°C° 0 mm 0 mps 622 mmHg 80%
19:00 +8°C° 0 mm 1 mps 622 mmHg 81%
20:00 +8°C° 0 mm 1 mps 622 mmHg 82%
21:00 +7°C° 0 mm 1 mps 622 mmHg 83%
22:00 +7°C° 0 mm 1 mps 622 mmHg 81%
23:00 +7°C° 0 mm 1 mps 621 mmHg 79%

1 October, Thursday

Time Temperature Precipitation Wind Pressure Humidity
00:00 +7°C° 0 mm 1 mps 621 mmHg 78%
01:00 +7°C° 0 mm 1 mps 621 mmHg 77%
02:00 +7°C° 0 mm 1 mps 620 mmHg 76%
03:00 +6°C° 0 mm 1 mps 620 mmHg 76%
04:00 +6°C° 0 mm 1 mps 620 mmHg 75%
05:00 +6°C° 0 mm 1 mps 620 mmHg 74%
06:00 +6°C° 0 mm 1 mps 620 mmHg 73%
07:00 +8°C° 0 mm 1 mps 621 mmHg 67%
08:00 +11°C° 0 mm 1 mps 622 mmHg 61%
09:00 +13°C° 0 mm 1 mps 623 mmHg 55%
10:00 +14°C° 0 mm 1 mps 623 mmHg 53%
11:00 +15°C° 0 mm 1 mps 623 mmHg 51%
12:00 +16°C° 0 mm 2 mps 623 mmHg 48%
13:00 +15°C° 0 mm 2 mps 623 mmHg 51%
14:00 +15°C° 0 mm 2 mps 622 mmHg 53%
15:00 +15°C° 0 mm 2 mps 622 mmHg 55%
16:00 +13°C° 0 mm 1 mps 621 mmHg 64%
17:00 +11°C° 0 mm 1 mps 620 mmHg 72%
18:00 +8°C° 0 mm 0 mps 619 mmHg 81%
19:00 +9°C° 0 mm 1 mps 619 mmHg 81%
20:00 +8°C° 0 mm 1 mps 619 mmHg 80%
21:00 +8°C° 0 mm 1 mps 619 mmHg 80%
22:00 +8°C° 0 mm 1 mps 618 mmHg 81%
23:00 +7°C° 0 mm 2 mps 618 mmHg 83%
Show more